Pontiac, MI

8:26 AM EDT on June 23, 2018 (GMT -0400)
Oakland County International

Weather History for KPTK - October, 2017

Change the Weather History Date:

Thursday, October 12, 2017

  Actual Average Record
Temperature  
Mean Temperature 52 °F -  
Max Temperature 55 °F 59 °F 78 °F (2008)
Min Temperature 48 °F 40 °F 30 °F (2006)
Degree Days  
Heating Degree Days 14    
Growing Degree Days 2 (Base 50)    
Moisture  
Dew Point 52 °F    
Average Humidity 97    
Maximum Humidity 100    
Minimum Humidity 86    
Precipitation  
Precipitation 0.00 in - - ()
Sea Level Pressure  
Sea Level Pressure 30.19 in    
Wind  
Wind Speed 6 mph (NE)    
Max Wind Speed 8 mph    
Max Gust Speed -    
Visibility 6 miles    
Events      
Averages and records for this station are not official NWS values.
T = Trace of Precipitation, MM = Missing Value Source: NWS Daily Summary

Daily Weather History Graph

Daily Weather History Graph

Search for Another Location

Airport or City:

Astronomy

Oct. 12, 2017 Rise Set
Actual Time 7:43 AM EDT 6:55 PM EDT
Civil Twilight 7:15 AM EDT 7:24 PM EDT
Nautical Twilight 6:42 AM EDT 7:56 PM EDT
Astronomical Twilight 6:09 AM EDT 8:29 PM EDT
Moon No Moon Rise 2:58 PM EDT (10/12)
Length of Visible Light 12h 08m
Length of Day
11h 12m
Waning Gibbous, 49% of the Moon is Illuminated
Oct 12
Waning Gibbous
Oct 19
New
Oct 27
First Quarter
Nov 4
Full
Nov 10
Last Quarter

Hourly Weather History & Observations

Time (EDT) Temp. Dew Point Humidity Pressure Visibility Wind Dir Wind Speed Gust Speed Precip Events Conditions
12:53 AM 51.1 °F 46.9 °F 86% 30.20 in 10.0 mi NE 6.9 mph - N/A   Overcast
1:53 AM 50.0 °F 48.0 °F 93% 30.20 in 10.0 mi NE 8.1 mph - N/A   Overcast
2:53 AM 50.0 °F 48.0 °F 93% 30.20 in 10.0 mi NE 8.1 mph - N/A   Overcast
3:24 AM 50.0 °F 48.0 °F 93% 30.19 in 10.0 mi NE 5.8 mph - N/A   Overcast
3:53 AM 50.0 °F 48.0 °F 93% 30.20 in 10.0 mi NE 6.9 mph - N/A   Overcast
4:42 AM 50.0 °F 48.0 °F 93% 30.19 in 10.0 mi NE 5.8 mph - N/A   Overcast
4:53 AM 50.0 °F 48.9 °F 96% 30.20 in 8.0 mi NE 5.8 mph - N/A   Overcast
5:53 AM 48.9 °F 48.9 °F 100% 30.21 in 5.0 mi NE 6.9 mph - 0.00 in   Light Drizzle
6:53 AM 48.9 °F 48.9 °F 100% 30.22 in 4.0 mi NNE 5.8 mph - 0.00 in   Overcast
7:53 AM 48.9 °F 48.9 °F 100% 30.22 in 4.0 mi NNE 6.9 mph - N/A   Overcast
8:53 AM 50.0 °F 48.9 °F 96% 30.22 in 10.0 mi NE 5.8 mph - N/A   Overcast
9:53 AM 51.1 °F 50.0 °F 96% 30.24 in 6.0 mi NE 5.8 mph - N/A   Overcast
10:53 AM 52.0 °F 51.1 °F 97% 30.23 in 10.0 mi NE 5.8 mph - N/A   Overcast
11:53 AM 53.1 °F 51.1 °F 93% 30.22 in 10.0 mi NE 6.9 mph - N/A   Overcast
12:25 PM 52.0 °F 51.1 °F 97% 30.21 in 2.5 mi NE 4.6 mph - N/A   Overcast
12:53 PM 52.0 °F 52.0 °F 100% 30.22 in 2.0 mi NNE 5.8 mph - 0.00 in   Light Drizzle
1:15 PM 52.0 °F 52.0 °F 100% 30.20 in 3.0 mi NE 6.9 mph - 0.00 in   Overcast
1:53 PM 53.1 °F 53.1 °F 100% 30.20 in 4.0 mi ENE 4.6 mph - 0.00 in   Overcast
2:53 PM 54.0 °F 53.1 °F 97% 30.18 in 6.0 mi ENE 5.8 mph - N/A   Overcast
3:53 PM 54.0 °F 53.1 °F 97% 30.17 in 6.0 mi NE 5.8 mph - N/A   Overcast
4:53 PM 55.0 °F 53.1 °F 93% 30.16 in 4.0 mi NNE 4.6 mph - N/A   Overcast
5:53 PM 55.0 °F 54.0 °F 96% 30.17 in 3.0 mi NE 4.6 mph - 0.00 in   Light Drizzle
6:25 PM 55.0 °F 54.0 °F 96% 30.16 in 2.0 mi NE 3.5 mph - 0.00 in   Light Drizzle
6:42 PM 55.0 °F 55.0 °F 100% 30.17 in 3.0 mi Calm Calm - 0.00 in   Overcast
6:53 PM 55.0 °F 55.0 °F 100% 30.17 in 3.0 mi Calm Calm - 0.00 in   Overcast
7:53 PM 55.0 °F 55.0 °F 100% 30.17 in 5.0 mi NNE 3.5 mph - N/A   Overcast
8:53 PM 55.0 °F 55.0 °F 100% 30.16 in 5.0 mi Calm Calm - 0.00 in   Overcast
9:53 PM 55.9 °F 55.0 °F 97% 30.15 in 5.0 mi Calm Calm - N/A   Overcast
10:53 PM 55.9 °F 55.0 °F 97% 30.14 in 3.0 mi West 3.5 mph - N/A   Overcast
11:42 PM 55.9 °F 55.9 °F 100% 30.14 in 3.0 mi WSW 3.5 mph - N/A   Overcast
11:53 PM 55.9 °F 55.9 °F 100% 30.14 in 2.5 mi WSW 3.5 mph - N/A   Overcast